Change the Weather History Date:

Saturday, October 6, 2012

  Actual Average Record
Temperature  
Mean Temperature 42 °F -  
Max Temperature 48 °F 61 °F 90 °F (1963)
Min Temperature 37 °F 42 °F 25 °F (1952)
Degree Days  
Heating Degree Days 24    
Moisture  
Dew Point 25 °F    
Average Humidity 52    
Maximum Humidity 63    
Minimum Humidity 42    
Precipitation  
Precipitation 0.00 in - - ()
Sea Level Pressure  
Sea Level Pressure 30.10 in    
Wind  
Wind Speed 10 mph (NW)    
Max Wind Speed 14 mph    
Max Gust Speed 21 mph    
Visibility 10 miles    
Events      
Averages and records for this station are not official NWS values.
T = Trace of Precipitation, MM = Missing Value Source: NWS Daily Summary

Daily Weather History Graph

Daily Weather History Graph

Search for Another Location

Airport or City:

Trip Planner

Search our weather history database for the weather conditions in past years. The results will help you decide how hot, cold, wet, or windy it might be!

Date:

Astronomy

Oct. 06, 2012 Rise Set
Actual Time 6:58 AM CDT 6:25 PM CDT
Civil Twilight 6:29 AM CDT 6:53 PM CDT
Nautical Twilight 5:56 AM CDT 7:27 PM CDT
Astronomical Twilight 5:22 AM CDT 8:00 PM CDT
Moon 10:31 PM CDT (10/6) 1:02 PM CDT (10/6)
Length of Visible Light 12h 24m
Length of Day
11h 26m
Waning Gibbous, 65% of the Moon is Illuminated
Oct 6
Waning Gibbous
Oct 8
Last Quarter
Oct 15
New
Oct 21
First Quarter
Oct 29
Full

Hourly Weather History & Observations

Time (CDT) Temp. Windchill Dew Point Humidity Pressure Visibility Wind Dir Wind Speed Gust Speed Precip Events Conditions
12:53 AM 39.0 °F 33.4 °F 23.0 °F 53% 30.01 in 10.0 mi West 8.1 mph - N/A   Clear
1:53 AM 37.9 °F 32.1 °F 23.0 °F 55% 30.01 in 10.0 mi West 8.1 mph - N/A   Clear
2:53 AM 37.0 °F 31.0 °F 24.1 °F 59% 30.01 in 10.0 mi West 8.1 mph - N/A   Mostly Cloudy
3:53 AM 37.9 °F 30.9 °F 26.1 °F 62% 30.01 in 10.0 mi WNW 10.4 mph - N/A   Mostly Cloudy
4:53 AM 39.9 °F 32.9 °F 26.1 °F 58% 30.02 in 10.0 mi WNW 11.5 mph - N/A   Overcast
5:53 AM 39.9 °F 33.4 °F 27.0 °F 60% 30.04 in 10.0 mi WNW 10.4 mph - N/A   Overcast
6:53 AM 39.9 °F 32.5 °F 27.0 °F 60% 30.06 in 10.0 mi WNW 12.7 mph - N/A   Overcast
7:53 AM 39.9 °F 33.9 °F 28.0 °F 63% 30.07 in 10.0 mi NW 9.2 mph - N/A   Overcast
8:53 AM 42.1 °F 35.7 °F 28.0 °F 58% 30.09 in 10.0 mi NNW 11.5 mph - N/A   Overcast
9:32 AM 41.0 °F 33.5 °F 28.4 °F 61% 30.08 in 10.0 mi NW 13.8 mph 18.4 mph N/A   Overcast
9:53 AM 41.0 °F 34.3 °F 28.0 °F 60% 30.11 in 10.0 mi NW 11.5 mph 20.7 mph N/A   Overcast
10:53 AM 44.1 °F 38.1 °F 27.0 °F 51% 30.12 in 10.0 mi NNW 11.5 mph 18.4 mph N/A   Scattered Clouds
11:53 AM 46.0 °F 39.9 °F 27.0 °F 47% 30.13 in 10.0 mi WNW 13.8 mph 17.3 mph N/A   Mostly Cloudy
12:53 PM 45.0 °F 39.7 °F 26.1 °F 48% 30.14 in 10.0 mi NNW 10.4 mph 19.6 mph N/A   Mostly Cloudy
1:53 PM 46.0 °F 39.9 °F 25.0 °F 44% 30.14 in 10.0 mi WNW 13.8 mph - N/A   Overcast
2:53 PM 46.0 °F 41.0 °F 25.0 °F 44% 30.13 in 10.0 mi NW 10.4 mph - N/A   Mostly Cloudy
3:53 PM 46.0 °F 39.9 °F 24.1 °F 42% 30.13 in 10.0 mi NW 13.8 mph 18.4 mph N/A   Overcast
4:53 PM 46.0 °F 41.4 °F 24.1 °F 42% 30.13 in 10.0 mi NW 9.2 mph - N/A   Overcast
5:53 PM 44.1 °F 38.6 °F 26.1 °F 49% 30.15 in 10.0 mi NW 10.4 mph - N/A   Overcast
6:53 PM 44.1 °F 40.1 °F 24.1 °F 45% 30.17 in 10.0 mi WNW 6.9 mph - N/A   Overcast
7:53 PM 43.0 °F 39.5 °F 21.9 °F 43% 30.18 in 10.0 mi NNW 5.8 mph - N/A   Overcast
8:53 PM 42.1 °F 37.7 °F 23.0 °F 47% 30.18 in 10.0 mi NW 6.9 mph - N/A   Overcast
9:53 PM 43.0 °F 38.2 °F 23.0 °F 45% 30.19 in 10.0 mi NNW 8.1 mph - N/A   Overcast
10:53 PM 42.1 °F 35.7 °F 23.0 °F 47% 30.19 in 10.0 mi NNW 11.5 mph - N/A   Overcast